[[{"header":{"parameterUnit":"m.s-1","parameterCategory":2,"la1":30.2991,"la2":30.254,"lo1":-89.0895,"lo2":-89.0444,"dy":0.0017,"dx":0.0017,"nx":28,"ny":28,"refTime":"2023-11-20T09:00:00:Z","depth":"0","parameterNumber":2,"parameterNumberName":"U-component_of_CURRENTS"},"data":[0,0,0,0,0,0,0,0,0,0,0,0,0,0,0,0,0,0,0,0,0,0,0,0,0,0,0,0,0,0,0,0,0,0,0,0,0,0,0,0,0,0,0,0,0,0,0,0,0,0,0,0,0,0,0,0,0,0,-0.2598,-0.2598,0,-0.2662,-0.2663,-0.2665,-0.2809,-0.2812,-0.2814,-0.2816,-0.3026,-0.3029,-0.3032,0,0,0,0,0,0,0,0,0,0,0,0,0,-0.2548,-0.255,-0.2598,-0.2598,-0.2599,-0.2662,-0.2663,-0.2665,-0.2809,-0.2812,-0.2815,-0.2817,-0.3025,-0.3029,-0.3033,0,0,0,0,0,0,0,0,0,0,0,0,0,-0.2594,-0.255,-0.2598,-0.2673,-0.268,-0.2662,-0.2664,-0.2665,-0.2808,-0.2812,-0.2815,-0.2819,-0.3023,-0.3028,-0.3033,-0.2996,0,0,-0.3049,-0.3051,0,0,0,0,0,0,0,0,-0.2591,-0.2597,-0.2662,-0.2667,-0.2675,-0.2725,-0.2722,-0.2781,-0.2808,-0.2767,-0.2816,-0.282,-0.2931,-0.2944,-0.2957,-0.3006,-0.3015,-0.3049,-0.3053,-0.3055,-0.3056,0,0,0,0,0,0,0,-0.2588,-0.2594,-0.2631,-0.2661,-0.2669,-0.2684,-0.2696,-0.2734,-0.2837,-0.2771,-0.278,-0.2774,-0.2938,-0.2951,-0.2963,-0.3018,-0.3049,-0.3054,-0.3057,-0.3059,-0.303,-0.3026,0,0,0,0,0,0,-0.2564,-0.2591,-0.2629,-0.2632,-0.2632,-0.2682,-0.2695,-0.2711,-0.2834,-0.2853,-0.2771,-0.278,-0.2941,-0.2957,-0.2971,-0.2887,-0.3055,-0.306,-0.3063,-0.3033,-0.3029,-0.3025,0,0,0,0,0,0,-0.2563,-0.2568,-0.2626,-0.2606,-0.2614,-0.2679,-0.2696,-0.2711,-0.2732,-0.2831,-0.2855,-0.2777,-0.2944,-0.2964,-0.2974,-0.2899,-0.3062,-0.3067,-0.3038,-0.3032,-0.3027,-0.2749,0,0,0,0,0,0,-0.2562,-0.2568,-0.2551,-0.2605,-0.2614,-0.2596,-0.2692,-0.2709,-0.2719,-0.2732,-0.2843,-0.2866,-0.2948,-0.2965,-0.2979,-0.2909,-0.3071,-0.3043,-0.3035,-0.3028,-0.2763,-0.2735,-0.271,0,0,0,0,0,-0.256,-0.2506,-0.2551,-0.2554,-0.2597,-0.2592,-0.2598,-0.2661,-0.2715,-0.2699,-0.2764,-0.2863,-0.293,-0.2965,-0.2983,-0.2912,-0.3046,-0.3037,-0.3029,-0.2775,-0.274,-0.2711,0,0,0,0,0,0,-0.2433,-0.2516,-0.2567,-0.2532,-0.2558,-0.2614,-0.2577,-0.2641,-0.2678,-0.2691,-0.2812,-0.2835,-0.2808,-0.2896,-0.2933,-0.2882,-0.3005,-0.2999,-0.2806,-0.2774,-0.2748,-0.275,-0.3075,0,0,0,0,0,-0.2405,-0.2405,-0.2479,-0.2433,-0.2447,-0.2516,-0.2516,-0.2569,-0.2611,-0.2633,-0.2701,-0.2764,-0.278,-0.2809,-0.284,-0.2818,-0.287,-0.2785,-0.2758,-0.2735,-0.2746,-0.2744,-0.2718,-0.2996,-0.2996,-0.2996,0,0,-0.2321,-0.2372,-0.236,-0.2408,-0.2431,-0.2407,-0.2526,-0.2509,-0.2484,-0.2645,-0.2611,-0.2665,-0.2748,-0.2708,-0.2707,-0.278,-0.2665,-0.2724,-0.2703,-0.2728,-0.2732,-0.2705,-0.2681,-0.299,-0.2991,-0.2992,0,0,-0.2155,-0.2221,-0.2175,-0.2203,-0.2243,-0.2292,-0.2285,-0.2343,-0.237,-0.2344,-0.2438,-0.2444,-0.2488,-0.2523,-0.2549,-0.2398,-0.2511,-0.2412,-0.2296,-0.229,-0.2268,-0.2249,-0.2202,-0.2182,-0.2415,-0.2415,-0.2414,0,-0.2039,-0.2057,-0.2142,-0.2113,-0.2132,-0.2233,-0.2197,-0.2199,-0.2246,-0.227,-0.2297,-0.2335,-0.239,-0.2364,-0.2304,-0.2336,-0.2353,-0.2405,-0.2254,-0.2238,-0.2224,-0.2182,-0.2163,-0.24,-0.2402,-0.2404,-0.2405,0,-0.1884,-0.1893,-0.1854,-0.1887,-0.1891,-0.1878,-0.1927,-0.1928,-0.1976,-0.2014,-0.1998,-0.2044,-0.2105,-0.2079,-0.2142,-0.2069,-0.2113,-0.2203,-0.2332,-0.2178,-0.2143,-0.2128,-0.238,-0.2385,-0.2389,-0.2393,0,0,-0.1676,-0.174,-0.1738,-0.1774,-0.1815,-0.182,-0.1754,-0.1787,-0.1795,-0.1779,-0.1784,-0.1746,-0.1829,-0.1864,-0.1933,-0.1908,-0.1768,-0.2003,-0.201,-0.1949,-0.1722,-0.1638,-0.1615,-0.1838,-0.1836,-0.1834,-0.1709,0,-0.1555,-0.1518,-0.1574,-0.1531,-0.1547,-0.1632,-0.1586,-0.161,-0.1646,-0.1656,-0.1682,-0.1698,-0.1729,-0.1771,-0.173,-0.1805,-0.1731,-0.1792,-0.189,-0.1892,-0.1832,-0.1596,-0.1524,-0.1398,-0.1696,-0.1694,-0.1692,0,-0.144,-0.1462,-0.1423,-0.1497,-0.1505,-0.1472,-0.1536,-0.1508,-0.1527,-0.1557,-0.1563,-0.1618,-0.1586,-0.1637,-0.1601,-0.1648,-0.1646,-0.166,-0.1658,-0.1684,-0.1782,-0.1618,-0.1363,-0.1363,-0.1671,-0.1673,-0.1674,0,-0.1387,-0.1383,-0.1387,-0.1401,-0.1442,-0.1447,-0.147,-0.1492,-0.1511,-0.1521,-0.1538,-0.1523,-0.1543,-0.1523,-0.1537,-0.1582,-0.1486,-0.1575,-0.1463,-0.1458,-0.147,-0.1469,-0.1231,-0.1491,-0.1491,-0.1491,-0.1492,0,-0.1325,-0.1328,-0.1374,-0.1385,-0.1414,-0.1429,-0.1456,-0.1476,-0.1488,-0.1473,-0.1508,-0.1475,-0.152,-0.1487,-0.1487,-0.1402,-0.1443,-0.138,-0.1402,-0.136,-0.1351,-0.1423,-0.1472,-0.1487,-0.1488,-0.1489,-0.1489,0,-0.1286,-0.1305,-0.1332,-0.1378,-0.1403,-0.1429,-0.1488,-0.1476,-0.1496,-0.1472,-0.1471,-0.1453,-0.1385,-0.139,-0.1361,-0.1337,-0.1247,-0.1241,-0.1157,-0.1168,-0.1062,-0.1099,-0.095,-0.0929,-0.108,-0.1077,-0.1075,0,-0.1265,-0.1267,-0.1352,-0.1388,-0.142,-0.1467,-0.1473,-0.1494,-0.1464,-0.1422,-0.1372,-0.1326,-0.1217,-0.1129,-0.1102,-0.103,-0.1096,-0.0935,-0.099,-0.0967,-0.1029,-0.1086,-0.1086,-0.0872,-0.0868,-0.0864,-0.0862,0,-0.1267,-0.13,-0.1382,-0.1385,-0.1409,-0.1413,-0.1412,-0.1388,-0.134,-0.1293,-0.113,-0.104,-0.0965,-0.0842,-0.0806,-0.0781,-0.0906,-0.0861,-0.0877,-0.0834,-0.0849,-0.0871,-0.103,-0.0832,-0.0835,-0.0837,-0.0839,-0.084,-0.1312,-0.1363,-0.141,-0.1404,-0.14,-0.126,-0.123,-0.1156,-0.1041,-0.0882,-0.0854,-0.067,-0.061,-0.0526,-0.0543,-0.0557,-0.0646,-0.057,-0.0608,-0.0661,-0.0645,-0.0691,-0.0511,-0.0512,-0.0513,-0.0513,-0.0514,0,-0.1341,-0.1367,-0.138,-0.1339,-0.1227,-0.1211,-0.1102,-0.1012,-0.0802,-0.0651,-0.0486,-0.0265,-0.0196,-0.0254,-0.0303,-0.0321,-0.038,-0.0355,-0.044,-0.0449,-0.0505,-0.0501,-0.0263,-0.0263,-0.0263,-0.0263,-0.0263,-0.0263,-0.1354,-0.1376,-0.1323,-0.1121,-0.1064,-0.0871,-0.0769,-0.065,-0.0533,-0.0266,-0.0119,-0.0024,-0.0046,-0.0086,-0.0202,-0.0237,-0.0297,-0.0273,-0.0335,-0.041,-0.0435,-0.046,-0.0463,-0.0221,-0.0221,-0.0264,-0.0265,-0.0265]},{"header":{"parameterUnit":"m.s-1","parameterCategory":2,"la1":30.2991,"la2":30.254,"lo1":-89.0895,"lo2":-89.0444,"dy":0.0017,"dx":0.0017,"nx":28,"ny":28,"refTime":"2023-11-20T09:00:00:Z","depth":"0","parameterNumber":3,"parameterNumberName":"V-component_of_CURRENTS"},"data":[0,0,0,0,0,0,0,0,0,0,0,0,0,0,0,0,0,0,0,0,0,0,0,0,0,0,0,0,0,0,0,0,0,0,0,0,0,0,0,0,0,0,0,0,0,0,0,0,0,0,0,0,0,0,0,0,0,0,-0.0292,-0.029,0,-0.011,-0.0108,-0.0106,0.0051,0.0053,0.0055,0.0056,0.0359,0.0366,0.0372,0,0,0,0,0,0,0,0,0,0,0,0,0,-0.0439,-0.0437,-0.0292,-0.029,-0.0288,-0.011,-0.0108,-0.0105,0.0051,0.0053,0.0055,0.0057,0.0357,0.0365,0.0373,0,0,0,0,0,0,0,0,0,0,0,0,0,-0.0327,-0.0437,-0.0293,-0.0189,-0.0178,-0.0111,-0.0108,-0.0104,0.0051,0.0053,0.0056,0.0058,0.0355,0.0364,0.0374,0.0385,0,0,0.0404,0.0408,0,0,0,0,0,0,0,0,-0.0334,-0.0322,-0.0207,-0.0196,-0.0184,-0.005,-0.0048,0.0065,0.005,-0.0035,0.0056,0.0059,0.0231,0.0251,0.028,0.0399,0.0412,0.0405,0.0411,0.0415,0.0418,0,0,0,0,0,0,0,-0.0342,-0.0328,-0.0219,-0.0205,-0.0191,-0.013,-0.0111,-0.0026,0.0085,-0.0028,-0.0016,0.0002,0.0239,0.027,0.0288,0.0416,0.0404,0.0413,0.0419,0.0423,0.0628,0.0627,0,0,0,0,0,0,-0.0372,-0.0336,-0.0225,-0.0214,-0.0255,-0.0129,-0.0109,-0.0095,0.0082,0.011,-0.0001,0.0008,0.0252,0.0277,0.03,0.0346,0.0415,0.0424,0.043,0.0628,0.0628,0.0627,0,0,0,0,0,0,-0.0376,-0.0365,-0.0232,-0.0271,-0.025,-0.013,-0.0115,-0.0093,-0.0054,0.0101,0.0132,0.0016,0.0255,0.0286,0.0366,0.0359,0.0428,0.0437,0.0629,0.0628,0.0627,0.0425,0,0,0,0,0,0,-0.0382,-0.0367,-0.0373,-0.0274,-0.0249,-0.0193,-0.0117,-0.0091,-0.0048,-0.0034,0.0124,0.0155,0.0259,0.035,0.0375,0.0374,0.0445,0.0629,0.0628,0.0628,0.0433,0.0418,0.0405,0,0,0,0,0,-0.0388,-0.0395,-0.0375,-0.0361,-0.0259,-0.0194,-0.0176,-0.0081,-0.005,-0.0038,0.0057,0.0151,0.0364,0.0356,0.0387,0.0388,0.063,0.0629,0.0628,0.0439,0.0421,0.0406,0,0,0,0,0,0,-0.045,-0.0378,-0.0352,-0.0335,-0.0276,-0.0168,-0.0147,-0.0099,-0.0019,-0.0004,0.0133,0.0169,0.0242,0.0337,0.0324,0.0447,0.0517,0.0522,0.0363,0.0348,0.0335,0.0307,0.0453,0,0,0,0,0,-0.0477,-0.0464,-0.0387,-0.0373,-0.0351,-0.0262,-0.0227,-0.017,-0.0085,-0.0047,0.0057,0.0169,0.0258,0.0317,0.0416,0.0469,0.0528,0.0496,0.0482,0.047,0.0469,0.05,0.0487,0.0624,0.0624,0.0624,0,0,-0.0493,-0.0455,-0.0444,-0.0387,-0.0332,-0.03,-0.0233,-0.0188,-0.0159,-0.0028,0.0039,0.0122,0.0261,0.0326,0.0369,0.0406,0.0463,0.0468,0.0456,0.0463,0.0497,0.0483,0.0471,0.0623,0.0623,0.0623,0,0,-0.0511,-0.0494,-0.0484,-0.045,-0.0388,-0.0338,-0.0336,-0.0246,-0.0204,-0.0147,-0.0048,0.0008,0.0166,0.0241,0.0305,0.0273,0.0384,0.0324,0.0239,0.0266,0.0254,0.0244,0.0292,0.0289,0.0322,0.0321,0.0321,0,-0.053,-0.0516,-0.0472,-0.0454,-0.0431,-0.0364,-0.0349,-0.0303,-0.0201,-0.0177,-0.014,0.0026,0.0123,0.0192,0.0181,0.0239,0.0284,0.028,0.0242,0.0234,0.0228,0.028,0.0278,0.0311,0.0312,0.0313,0.0314,0,-0.0532,-0.0529,-0.0523,-0.0484,-0.0458,-0.0439,-0.0379,-0.0355,-0.0311,-0.0259,-0.0199,-0.01,0.0006,0.0033,0.0101,0.011,0.0166,0.0208,0.0268,0.02,0.0262,0.0263,0.0297,0.0301,0.0304,0.0306,0,0,-0.0547,-0.0528,-0.0527,-0.0528,-0.048,-0.0456,-0.0434,-0.0391,-0.0372,-0.0313,-0.0281,-0.0193,-0.0155,-0.0082,-0.0008,0.0003,-0.0025,0.0073,0.008,0.0094,0.005,0.0082,0.0089,0.0003,0.0003,0.0002,0.0107,0,-0.0558,-0.0559,-0.0539,-0.0539,-0.0538,-0.0496,-0.0475,-0.0435,-0.039,-0.0345,-0.0291,-0.0221,-0.019,-0.0148,-0.0145,-0.0026,-0.0026,-0.0055,0.0141,0.0147,0.0159,0.0089,0.0121,0.0216,0.011,0.011,0.011,0,-0.0565,-0.0569,-0.0582,-0.058,-0.0574,-0.0565,-0.0537,-0.0509,-0.0447,-0.041,-0.0372,-0.0296,-0.0253,-0.0226,-0.0125,-0.0141,-0.0073,-0.001,-0.0004,0.0101,0.0182,0.0273,0.0224,0.0273,0.0114,0.0114,0.0114,0,-0.0604,-0.0602,-0.0625,-0.0622,-0.0601,-0.0603,-0.0587,-0.0535,-0.0484,-0.0452,-0.0396,-0.0354,-0.0278,-0.0231,-0.0099,-0.0108,0.0017,0.0036,0.0119,0.0124,0.023,0.0245,0.023,0.0068,0.0068,0.0067,0.0067,0,-0.0635,-0.065,-0.0651,-0.0662,-0.0662,-0.065,-0.0623,-0.0603,-0.0532,-0.0421,-0.0434,-0.0326,-0.0277,-0.0176,-0.0109,0.0022,0.0014,0.0092,0.0141,0.0163,0.0169,0.0285,0.0303,0.0071,0.007,0.007,0.0069,0,-0.0674,-0.0677,-0.0691,-0.069,-0.068,-0.0683,-0.0607,-0.0533,-0.0533,-0.0386,-0.0361,-0.028,-0.017,-0.0118,0.0004,0.0052,0.0191,0.0189,0.0216,0.0263,0.0357,0.0364,0.0431,0.0491,0.0284,0.0285,0.0286,0,-0.0693,-0.0712,-0.0703,-0.0631,-0.0624,-0.0604,-0.0515,-0.052,-0.0396,-0.03,-0.0171,-0.0111,0.0032,0.0146,0.0174,0.0245,0.0277,0.0338,0.0302,0.0349,0.0394,0.0386,0.0431,0.0374,0.0375,0.0377,0.0378,0,-0.0716,-0.0715,-0.0702,-0.054,-0.0454,-0.0379,-0.0267,-0.0199,-0.012,-0.0024,0.0177,0.0246,0.0285,0.0352,0.0337,0.0384,0.0375,0.0368,0.0412,0.0443,0.0443,0.0531,0.0333,0.039,0.0389,0.0388,0.0387,0.0387,-0.07,-0.0643,-0.0544,-0.0383,-0.027,-0.0098,-0.0025,0.0123,0.026,0.0422,0.0496,0.0604,0.0583,0.0538,0.0528,0.0511,0.0485,0.0551,0.0555,0.0542,0.0583,0.0407,0.0516,0.0515,0.0515,0.0514,0.0514,0,-0.0573,-0.0466,-0.0323,-0.0126,0.0049,0.0054,0.0231,0.0322,0.0505,0.0631,0.0787,0.0938,0.0879,0.0772,0.0696,0.0709,0.0699,0.0727,0.0721,0.076,0.0611,0.0598,0.0734,0.0734,0.0734,0.0734,0.0734,0.0734,-0.0476,-0.0274,-0.0166,0.016,0.0286,0.0469,0.0548,0.0648,0.074,0.0937,0.1046,0.1127,0.1116,0.0937,0.0858,0.0856,0.0915,0.0881,0.0921,0.0806,0.079,0.0774,0.0763,0.0933,0.0933,0.1082,0.1083,0.1084]}],[{"header":{"parameterUnit":"m.s-1","parameterCategory":2,"la1":30.2991,"la2":30.254,"lo1":-89.0895,"lo2":-89.0444,"dy":0.0017,"dx":0.0017,"nx":28,"ny":28,"refTime":"2023-11-20T09:00:00:Z","depth":"2","parameterNumber":2,"parameterNumberName":"U-component_of_CURRENTS"},"data":[0,0,0,0,0,0,0,0,0,0,0,0,0,0,0,0,0,0,0,0,0,0,0,0,0,0,0,0,0,0,0,0,0,0,0,0,0,0,0,0,0,0,0,0,0,0,0,0,0,0,0,0,0,0,0,0,0,0,-0.1664,-0.1665,0,-0.1739,-0.174,-0.1741,-0.1826,-0.1828,-0.1829,-0.183,-0.1889,-0.1889,-0.189,0,0,0,0,0,0,0,0,0,0,0,0,0,-0.1559,-0.156,-0.1664,-0.1665,-0.1666,-0.1739,-0.174,-0.1741,-0.1826,-0.1828,-0.1829,-0.1831,-0.1889,-0.1889,-0.189,0,0,0,0,0,0,0,0,0,0,0,0,0,-0.1615,-0.1561,-0.1664,-0.1719,-0.1725,-0.1739,-0.174,-0.1741,-0.1826,-0.1828,-0.183,-0.1832,-0.1889,-0.1889,-0.189,-0.1849,0,0,-0.1891,-0.1891,0,0,0,0,0,0,0,0,-0.1611,-0.1618,-0.171,-0.1715,-0.1722,-0.1777,-0.1725,-0.1777,-0.1825,-0.1785,-0.183,-0.1833,-0.1849,-0.1853,-0.1861,-0.1852,-0.1854,-0.1891,-0.1891,-0.1891,-0.1891,0,0,0,0,0,0,0,-0.1608,-0.1615,-0.1692,-0.1711,-0.1718,-0.1728,-0.1738,-0.1735,-0.1803,-0.1789,-0.1796,-0.1806,-0.1853,-0.186,-0.1863,-0.1855,-0.1891,-0.1891,-0.1891,-0.1891,-0.1853,-0.1851,0,0,0,0,0,0,-0.1601,-0.1612,-0.169,-0.1695,-0.1673,-0.1728,-0.174,-0.1756,-0.1804,-0.1814,-0.1804,-0.181,-0.1858,-0.1862,-0.1865,-0.1818,-0.1891,-0.1891,-0.1892,-0.1854,-0.1852,-0.1851,0,0,0,0,0,0,-0.1599,-0.1608,-0.1687,-0.1656,-0.1667,-0.1728,-0.1745,-0.1756,-0.1796,-0.1816,-0.1826,-0.1837,-0.186,-0.1864,-0.1892,-0.1821,-0.1892,-0.1892,-0.1855,-0.1853,-0.1852,-0.1725,0,0,0,0,0,0,-0.1595,-0.1606,-0.1615,-0.1656,-0.1669,-0.1691,-0.1744,-0.1756,-0.1798,-0.1807,-0.1846,-0.1852,-0.1862,-0.1892,-0.1893,-0.1823,-0.1892,-0.1857,-0.1854,-0.1852,-0.1731,-0.1719,-0.1709,0,0,0,0,0,-0.1591,-0.1588,-0.1615,-0.1625,-0.168,-0.169,-0.1697,-0.1746,-0.1798,-0.1795,-0.1846,-0.1853,-0.1876,-0.1892,-0.1893,-0.1822,-0.1858,-0.1855,-0.1852,-0.1736,-0.1722,-0.1709,0,0,0,0,0,0,-0.1561,-0.1597,-0.1629,-0.1643,-0.1666,-0.1706,-0.1709,-0.1757,-0.1795,-0.1811,-0.1854,-0.1862,-0.1839,-0.1869,-0.1886,-0.1807,-0.186,-0.1857,-0.1771,-0.1758,-0.1747,-0.177,-0.1892,0,0,0,0,0,-0.1554,-0.1555,-0.1598,-0.1609,-0.1618,-0.1672,-0.1688,-0.1719,-0.1759,-0.1781,-0.1809,-0.1832,-0.1819,-0.1829,-0.1818,-0.1799,-0.1823,-0.1751,-0.174,-0.1731,-0.1752,-0.1751,-0.1742,-0.1842,-0.1842,-0.1842,0,0,-0.1545,-0.1567,-0.1569,-0.16,-0.1624,-0.1622,-0.1686,-0.1701,-0.1702,-0.1775,-0.1784,-0.1789,-0.1806,-0.1764,-0.1757,-0.1791,-0.1703,-0.1727,-0.1718,-0.1746,-0.1747,-0.1738,-0.1729,-0.184,-0.184,-0.1841,0,0,-0.1506,-0.1546,-0.1525,-0.154,-0.1568,-0.159,-0.1602,-0.1641,-0.1661,-0.1669,-0.1703,-0.1698,-0.1698,-0.1687,-0.1685,-0.1621,-0.1636,-0.1598,-0.1569,-0.1565,-0.1557,-0.1551,-0.1515,-0.1506,-0.1603,-0.1603,-0.1603,0,-0.1489,-0.1494,-0.1521,-0.1508,-0.1524,-0.1579,-0.1571,-0.1581,-0.1625,-0.1639,-0.1656,-0.1656,-0.1655,-0.1622,-0.1588,-0.1589,-0.1595,-0.1608,-0.155,-0.1544,-0.154,-0.1506,-0.1498,-0.1597,-0.1597,-0.1598,-0.1599,0,-0.1435,-0.1448,-0.1437,-0.1441,-0.1451,-0.1452,-0.1475,-0.1484,-0.1518,-0.1537,-0.1521,-0.1526,-0.1542,-0.1501,-0.1524,-0.1475,-0.1486,-0.1522,-0.1579,-0.1522,-0.1489,-0.1483,-0.1588,-0.159,-0.1592,-0.1593,0,0,-0.1367,-0.1394,-0.1391,-0.1407,-0.1426,-0.1432,-0.1418,-0.1431,-0.1446,-0.1443,-0.1454,-0.1404,-0.1433,-0.1436,-0.1441,-0.1432,-0.1362,-0.1464,-0.1467,-0.1422,-0.1333,-0.1244,-0.123,-0.1391,-0.1391,-0.139,-0.1303,0,-0.1323,-0.1307,-0.1325,-0.132,-0.1327,-0.1367,-0.1357,-0.1372,-0.1388,-0.1397,-0.1395,-0.139,-0.1398,-0.1398,-0.1385,-0.1383,-0.1351,-0.1382,-0.1405,-0.1405,-0.1328,-0.1222,-0.1132,-0.104,-0.1298,-0.1297,-0.1296,0,-0.126,-0.1272,-0.1261,-0.1302,-0.1306,-0.1299,-0.1328,-0.1326,-0.1339,-0.1353,-0.1357,-0.1372,-0.1348,-0.1368,-0.1334,-0.1358,-0.1337,-0.1327,-0.1324,-0.1296,-0.1307,-0.1152,-0.102,-0.1287,-0.1288,-0.1288,-0.1289,0,-0.122,-0.1228,-0.1232,-0.1242,-0.1277,-0.128,-0.1295,-0.1313,-0.132,-0.1331,-0.1336,-0.1334,-0.1325,-0.1319,-0.1293,-0.132,-0.1251,-0.1289,-0.1179,-0.1172,-0.113,-0.1119,-0.1253,-0.1253,-0.1253,-0.1254,-0.1254,0,-0.1181,-0.1183,-0.1217,-0.1225,-0.1228,-0.1258,-0.1259,-0.1278,-0.1295,-0.1288,-0.1315,-0.1298,-0.1317,-0.1285,-0.1274,-0.1189,-0.1233,-0.115,-0.114,-0.1075,-0.1062,-0.1332,-0.1343,-0.125,-0.1251,-0.1252,-0.1252,0,-0.1141,-0.1163,-0.1172,-0.1206,-0.1212,-0.1216,-0.124,-0.1227,-0.1264,-0.1253,-0.1256,-0.1263,-0.1208,-0.1197,-0.1163,-0.114,-0.109,-0.1048,-0.0948,-0.0927,-0.1016,-0.1022,-0.0917,-0.0913,-0.0909,-0.0907,-0.0904,0,-0.1122,-0.1121,-0.1151,-0.113,-0.1141,-0.1152,-0.1138,-0.1198,-0.1188,-0.1217,-0.1193,-0.1158,-0.1111,-0.1014,-0.0941,-0.0864,-0.0959,-0.076,-0.0791,-0.0979,-0.098,-0.0991,-0.1,-0.0667,-0.0663,-0.066,-0.0657,0,-0.1074,-0.1082,-0.1076,-0.1054,-0.1038,-0.1043,-0.1042,-0.1051,-0.1102,-0.1109,-0.1093,-0.107,-0.0946,-0.0815,-0.0706,-0.0665,-0.077,-0.0686,-0.0906,-0.0766,-0.0736,-0.0741,-0.0759,-0.0627,-0.063,-0.0632,-0.0634,-0.0635,-0.1017,-0.0986,-0.0964,-0.0939,-0.0926,-0.0921,-0.0897,-0.091,-0.0924,-0.0906,-0.0951,-0.0871,-0.083,-0.0591,-0.0523,-0.0443,-0.0508,-0.0513,-0.0527,-0.0544,-0.053,-0.0496,-0.0337,-0.0338,-0.034,-0.0341,-0.0341,0,-0.0906,-0.0869,-0.0837,-0.0805,-0.0764,-0.0807,-0.08,-0.0765,-0.075,-0.0733,-0.0713,-0.0613,-0.05,-0.0448,-0.0261,-0.0224,-0.0261,-0.023,-0.0295,-0.0321,-0.0346,-0.0328,-0.0079,-0.0078,-0.0078,-0.0078,0,0,-0.0838,-0.0759,-0.0747,-0.0655,-0.0629,-0.0566,-0.0554,-0.0535,-0.0507,-0.0457,-0.0408,-0.0435,-0.0423,-0.0273,-0.0214,-0.0111,-0.0222,-0.0091,-0.0293,-0.0394,-0.0419,-0.0486,-0.0484,0,0,0,0,0]},{"header":{"parameterUnit":"m.s-1","parameterCategory":2,"la1":30.2991,"la2":30.254,"lo1":-89.0895,"lo2":-89.0444,"dy":0.0017,"dx":0.0017,"nx":28,"ny":28,"refTime":"2023-11-20T09:00:00:Z","depth":"2","parameterNumber":3,"parameterNumberName":"V-component_of_CURRENTS"},"data":[0,0,0,0,0,0,0,0,0,0,0,0,0,0,0,0,0,0,0,0,0,0,0,0,0,0,0,0,0,0,0,0,0,0,0,0,0,0,0,0,0,0,0,0,0,0,0,0,0,0,0,0,0,0,0,0,0,0,-0.0257,-0.0256,0,-0.0165,-0.0163,-0.0162,-0.0087,-0.0086,-0.0086,-0.0085,0.0085,0.0089,0.0093,0,0,0,0,0,0,0,0,0,0,0,0,0,-0.0332,-0.0332,-0.0257,-0.0256,-0.0255,-0.0165,-0.0163,-0.0162,-0.0087,-0.0086,-0.0086,-0.0085,0.0084,0.0089,0.0093,0,0,0,0,0,0,0,0,0,0,0,0,0,-0.0275,-0.0331,-0.0257,-0.0207,-0.0202,-0.0165,-0.0163,-0.0162,-0.0087,-0.0086,-0.0085,-0.0084,0.0082,0.0088,0.0094,0.0108,0,0,0.0112,0.0114,0,0,0,0,0,0,0,0,-0.0279,-0.0273,-0.0216,-0.021,-0.0204,-0.0137,-0.0128,-0.0068,-0.0088,-0.013,-0.0085,-0.0084,0.0017,0.0028,0.0043,0.0116,0.0124,0.0112,0.0116,0.0118,0.012,0,0,0,0,0,0,0,-0.0283,-0.0276,-0.022,-0.0214,-0.0208,-0.0177,-0.0168,-0.0116,-0.0062,-0.0126,-0.0121,-0.0112,0.0021,0.0037,0.0048,0.0126,0.0112,0.0117,0.0121,0.0123,0.0264,0.0264,0,0,0,0,0,0,-0.0299,-0.028,-0.0222,-0.0217,-0.0241,-0.0177,-0.0167,-0.0159,-0.0064,-0.0049,-0.0113,-0.0109,0.0027,0.0041,0.0054,0.0094,0.0118,0.0123,0.0127,0.0264,0.0264,0.0264,0,0,0,0,0,0,-0.0301,-0.0295,-0.0226,-0.0247,-0.0236,-0.0177,-0.0169,-0.0158,-0.0135,-0.0055,-0.0038,-0.0101,0.0028,0.0046,0.01,0.0101,0.0126,0.0131,0.0264,0.0264,0.0264,0.0164,0,0,0,0,0,0,-0.0303,-0.0296,-0.03,-0.0248,-0.0235,-0.0203,-0.017,-0.0157,-0.0132,-0.0125,-0.0039,-0.0022,0.003,0.0091,0.0106,0.0109,0.0136,0.0263,0.0264,0.0264,0.0167,0.0161,0.0155,0,0,0,0,0,-0.0306,-0.0309,-0.0301,-0.0294,-0.0242,-0.0204,-0.0194,-0.0148,-0.0132,-0.0123,-0.007,-0.0025,0.0105,0.0095,0.0113,0.0118,0.0263,0.0264,0.0264,0.0169,0.0162,0.0155,0,0,0,0,0,0,-0.0342,-0.03,-0.029,-0.028,-0.0248,-0.0191,-0.018,-0.0154,-0.0106,-0.0099,-0.0026,-0.0006,0.0038,0.0095,0.0082,0.0163,0.0194,0.0198,0.0116,0.0109,0.0104,0.0097,0.0141,0,0,0,0,0,-0.0356,-0.0348,-0.0304,-0.0298,-0.0285,-0.0237,-0.0218,-0.0189,-0.014,-0.0118,-0.0061,0.0003,0.0052,0.0093,0.0143,0.0189,0.0225,0.0208,0.0202,0.0197,0.0204,0.0238,0.0235,0.0266,0.0266,0.0266,0,0,-0.0369,-0.0346,-0.0342,-0.0306,-0.0278,-0.0257,-0.0222,-0.0196,-0.0175,-0.0106,-0.0064,-0.0022,0.0056,0.01,0.0128,0.0152,0.0205,0.0198,0.0192,0.0203,0.0238,0.0235,0.0232,0.0267,0.0267,0.0267,0,0,-0.0384,-0.0371,-0.0367,-0.0343,-0.0307,-0.0276,-0.0272,-0.022,-0.0193,-0.0154,-0.0106,-0.0064,0.0022,0.0073,0.0112,0.011,0.0161,0.0129,0.011,0.0141,0.0138,0.0136,0.016,0.0161,0.014,0.014,0.014,0,-0.0404,-0.039,-0.036,-0.0347,-0.0331,-0.0287,-0.0277,-0.0244,-0.0183,-0.0163,-0.0147,-0.0047,0.0012,0.0067,0.0067,0.0097,0.0118,0.0121,0.013,0.0129,0.0129,0.0155,0.0157,0.0135,0.0136,0.0136,0.0137,0,-0.0407,-0.0401,-0.0396,-0.0367,-0.0347,-0.0332,-0.0287,-0.0266,-0.0236,-0.02,-0.0155,-0.0091,-0.0025,-0.0006,0.0034,0.0064,0.0079,0.0101,0.0137,0.0119,0.0148,0.0152,0.0129,0.013,0.0132,0.0133,0,0,-0.0434,-0.0406,-0.0405,-0.04,-0.0358,-0.0341,-0.0315,-0.0275,-0.0257,-0.0211,-0.0183,-0.0114,-0.0089,-0.0044,0.0002,0.0036,0.0042,0.0065,0.0069,0.0072,0.01,0.0113,0.012,0.0055,0.0056,0.0057,0.0115,0,-0.0446,-0.0439,-0.0415,-0.0407,-0.0399,-0.0361,-0.0339,-0.0301,-0.0263,-0.0227,-0.0171,-0.0128,-0.0099,-0.0075,-0.0043,0.0026,0.0052,0.0024,0.0135,0.0139,0.0138,0.0125,0.0114,0.0165,0.0119,0.012,0.0121,0,-0.0454,-0.0448,-0.0448,-0.0428,-0.0421,-0.041,-0.0374,-0.0348,-0.029,-0.0262,-0.022,-0.0173,-0.0114,-0.0094,0.0002,-0.0021,0.003,0.0077,0.0081,0.0136,0.016,0.0183,0.0175,0.0128,0.0128,0.0127,0.0127,0,-0.0486,-0.047,-0.0475,-0.0468,-0.0437,-0.0432,-0.0412,-0.0363,-0.0339,-0.0286,-0.0261,-0.0196,-0.0148,-0.0088,0.0011,0.0004,0.0111,0.0119,0.0177,0.0178,0.0216,0.022,0.0176,0.0176,0.0176,0.0176,0.0175,0,-0.0507,-0.0509,-0.0494,-0.0497,-0.05,-0.0466,-0.0457,-0.0427,-0.0379,-0.036,-0.0285,-0.0245,-0.0144,-0.0067,0.0001,0.0105,0.0106,0.0174,0.0196,0.018,0.018,0.0194,0.0195,0.0178,0.0177,0.0177,0.0176,0,-0.0542,-0.0531,-0.0538,-0.0521,-0.0518,-0.0522,-0.0494,-0.0491,-0.0429,-0.0403,-0.0388,-0.0271,-0.0166,-0.0064,0.0057,0.0108,0.0197,0.0232,0.0203,0.022,0.0241,0.0237,0.0295,0.0296,0.0297,0.0298,0.0298,0,-0.0559,-0.0567,-0.0568,-0.0586,-0.0584,-0.0581,-0.0589,-0.0533,-0.053,-0.0421,-0.042,-0.0286,-0.0197,-0.0003,0.0116,0.0238,0.0236,0.0285,0.0274,0.0239,0.0255,0.0249,0.0244,0.028,0.028,0.0281,0.0281,0,-0.0593,-0.0596,-0.0609,-0.0641,-0.0662,-0.0669,-0.0672,-0.0665,-0.0605,-0.0562,-0.046,-0.0362,-0.0147,0.0014,0.0179,0.0243,0.0261,0.0295,0.028,0.0248,0.0228,0.0242,0.0237,0.0284,0.0284,0.0283,0.0283,0.0283,-0.0623,-0.0646,-0.0668,-0.0695,-0.0721,-0.074,-0.0734,-0.0729,-0.0696,-0.0597,-0.0524,-0.035,-0.018,0.0085,0.0196,0.0314,0.0313,0.0327,0.0325,0.0322,0.0306,0.0289,0.0353,0.0353,0.0353,0.0353,0.0353,0,-0.0664,-0.0685,-0.072,-0.0745,-0.0771,-0.0772,-0.0777,-0.0748,-0.0706,-0.0615,-0.0509,-0.0318,-0.0131,0.0067,0.0262,0.0351,0.0339,0.0356,0.0325,0.0322,0.0319,0.0301,0.0348,0.0348,0.0348,0.0348,0,0,-0.0687,-0.0727,-0.0737,-0.0771,-0.079,-0.0795,-0.0787,-0.0738,-0.0658,-0.054,-0.0416,-0.0303,-0.0079,0.0035,0.0159,0.0275,0.0268,0.0277,0.0273,0.0219,0.0215,0.0297,0.0266,0,0,0,0,0]}],[{"header":{"parameterUnit":"m.s-1","parameterCategory":2,"la1":30.2991,"la2":30.254,"lo1":-89.0895,"lo2":-89.0444,"dy":0.0017,"dx":0.0017,"nx":28,"ny":28,"refTime":"2023-11-20T09:00:00:Z","depth":"4","parameterNumber":2,"parameterNumberName":"U-component_of_CURRENTS"},"data":[0,0,0,0,0,0,0,0,0,0,0,0,0,0,0,0,0,0,0,0,0,0,0,0,0,0,0,0,0,0,0,0,0,0,0,0,0,0,0,0,0,0,0,0,0,0,0,0,0,0,0,0,0,0,0,0,0,0,-0.1034,-0.1034,0,-0.1044,-0.1044,-0.1044,-0.1065,-0.1065,-0.1066,-0.1066,-0.1032,-0.103,-0.1029,0,0,0,0,0,0,0,0,0,0,0,0,0,-0.1003,-0.1003,-0.1034,-0.1034,-0.1034,-0.1044,-0.1044,-0.1044,-0.1065,-0.1065,-0.1066,-0.1066,-0.1032,-0.1031,-0.1029,0,0,0,0,0,0,0,0,0,0,0,0,0,-0.1015,-0.1004,-0.1034,-0.1046,-0.1047,-0.1044,-0.1044,-0.1044,-0.1065,-0.1065,-0.1066,-0.1067,-0.1033,-0.1031,-0.1029,-0.1002,0,0,-0.1023,-0.1022,0,0,0,0,0,0,0,0,-0.1014,-0.1016,-0.1044,-0.1045,-0.1047,-0.1054,-0.102,-0.1028,-0.1065,-0.1058,-0.1066,-0.1067,-0.1035,-0.1033,-0.1033,-0.1001,-0.0999,-0.1022,-0.1021,-0.102,-0.102,0,0,0,0,0,0,0,-0.1013,-0.1015,-0.1037,-0.1044,-0.1046,-0.1041,-0.1043,-0.1022,-0.1041,-0.1058,-0.106,-0.1062,-0.1035,-0.1035,-0.1032,-0.0999,-0.1022,-0.1021,-0.1019,-0.1019,-0.096,-0.096,0,0,0,0,0,0,-0.1014,-0.1015,-0.1037,-0.1038,-0.1032,-0.1041,-0.1044,-0.1051,-0.1042,-0.1042,-0.1061,-0.1062,-0.1038,-0.1035,-0.1031,-0.1039,-0.102,-0.1018,-0.1017,-0.0961,-0.096,-0.096,0,0,0,0,0,0,-0.1013,-0.1016,-0.1037,-0.1026,-0.1029,-0.1041,-0.1048,-0.1051,-0.107,-0.1045,-0.1044,-0.108,-0.1039,-0.1034,-0.1019,-0.1036,-0.1017,-0.1016,-0.0961,-0.096,-0.096,-0.1029,0,0,0,0,0,0,-0.1012,-0.1016,-0.1031,-0.1027,-0.1029,-0.1044,-0.1048,-0.105,-0.1069,-0.1071,-0.106,-0.1057,-0.1039,-0.1022,-0.1017,-0.1033,-0.1014,-0.0961,-0.0961,-0.096,-0.1027,-0.1031,-0.1034,0,0,0,0,0,-0.1011,-0.1024,-0.1031,-0.1035,-0.1047,-0.1045,-0.1046,-0.1056,-0.1069,-0.1077,-0.1066,-0.1059,-0.1015,-0.102,-0.1014,-0.103,-0.0962,-0.0961,-0.096,-0.1025,-0.103,-0.1034,0,0,0,0,0,0,-0.1028,-0.1027,-0.1035,-0.1052,-0.1054,-0.1049,-0.1061,-0.1067,-0.1067,-0.1075,-0.1053,-0.1048,-0.1041,-0.1018,-0.1025,-0.1008,-0.0987,-0.0985,-0.1039,-0.1043,-0.1046,-0.1053,-0.1012,0,0,0,0,0,-0.1036,-0.1043,-0.1043,-0.1059,-0.1062,-0.1066,-0.1072,-0.1078,-0.1073,-0.1076,-0.1064,-0.1047,-0.1029,-0.1024,-0.1,-0.0992,-0.0972,-0.0996,-0.0999,-0.1003,-0.1002,-0.0998,-0.1002,-0.0957,-0.0957,-0.0957,0,0,-0.1048,-0.1049,-0.1056,-0.1063,-0.1068,-0.1071,-0.1072,-0.1086,-0.1093,-0.1069,-0.1077,-0.1059,-0.1027,-0.1018,-0.1013,-0.1007,-0.1001,-0.1002,-0.1005,-0.1003,-0.0998,-0.1003,-0.1007,-0.0957,-0.0957,-0.0957,0,0,-0.1056,-0.1078,-0.1078,-0.1082,-0.109,-0.1092,-0.11,-0.1101,-0.1111,-0.111,-0.1093,-0.1088,-0.106,-0.1046,-0.1033,-0.1039,-0.1017,-0.1029,-0.1061,-0.1058,-0.1062,-0.1066,-0.1037,-0.1038,-0.1036,-0.1036,-0.1036,0,-0.107,-0.1072,-0.1079,-0.1079,-0.1086,-0.1103,-0.1105,-0.1116,-0.1113,-0.1115,-0.112,-0.1091,-0.1075,-0.1063,-0.1068,-0.1051,-0.1033,-0.1055,-0.1066,-0.1069,-0.1071,-0.1041,-0.1041,-0.1039,-0.1039,-0.1038,-0.1038,0,-0.1061,-0.1078,-0.1082,-0.1087,-0.1097,-0.1106,-0.1117,-0.1131,-0.1147,-0.1149,-0.1151,-0.1133,-0.1114,-0.1114,-0.1096,-0.1101,-0.1076,-0.1072,-0.1064,-0.1081,-0.1046,-0.1045,-0.1044,-0.1043,-0.1042,-0.1041,0,0,-0.1042,-0.107,-0.1071,-0.1082,-0.1104,-0.1107,-0.113,-0.1139,-0.1152,-0.1166,-0.1171,-0.1165,-0.1164,-0.1148,-0.1132,-0.1139,-0.1146,-0.1119,-0.1117,-0.1105,-0.1121,-0.1021,-0.101,-0.115,-0.115,-0.115,-0.1087,0,-0.103,-0.1039,-0.1053,-0.1072,-0.108,-0.1108,-0.1122,-0.1141,-0.1157,-0.1166,-0.1176,-0.1171,-0.1175,-0.117,-0.118,-0.1146,-0.1146,-0.1162,-0.1092,-0.1089,-0.1013,-0.1007,-0.1151,-0.1086,-0.1086,-0.1085,-0.1085,0,-0.0998,-0.1014,-0.103,-0.1067,-0.1072,-0.1087,-0.1116,-0.1131,-0.1154,-0.1166,-0.1181,-0.118,-0.1185,-0.119,-0.1169,-0.1178,-0.1154,-0.1139,-0.1136,-0.1018,-0.0988,-0.1064,-0.1082,-0.1082,-0.1083,-0.1083,-0.1083,0,-0.0964,-0.0993,-0.101,-0.1022,-0.1064,-0.1078,-0.11,-0.1128,-0.1139,-0.1164,-0.1166,-0.1182,-0.1173,-0.1171,-0.114,-0.1156,-0.1106,-0.112,-0.1008,-0.1,-0.1081,-0.1078,-0.1108,-0.1108,-0.1108,-0.1108,-0.1108,0,-0.0933,-0.095,-0.0999,-0.1009,-0.1027,-0.1062,-0.108,-0.1104,-0.113,-0.1122,-0.1162,-0.1144,-0.117,-0.1144,-0.1132,-0.1048,-0.1097,-0.1001,-0.0977,-0.1107,-0.1108,-0.1079,-0.1077,-0.1106,-0.1106,-0.1107,-0.1107,0,-0.0893,-0.0927,-0.095,-0.0999,-0.1012,-0.1026,-0.1067,-0.1062,-0.1104,-0.1094,-0.1099,-0.1111,-0.1061,-0.1064,-0.1034,-0.1007,-0.096,-0.0919,-0.1034,-0.1019,-0.0859,-0.0861,-0.079,-0.0786,-0.0783,-0.078,-0.0778,0,-0.0873,-0.088,-0.0934,-0.0929,-0.0951,-0.0978,-0.0977,-0.104,-0.103,-0.1051,-0.1022,-0.0999,-0.0989,-0.0868,-0.0888,-0.0841,-0.0836,-0.0815,-0.0865,-0.0843,-0.0827,-0.0834,-0.084,-0.0772,-0.0771,-0.0771,-0.077,0,-0.0823,-0.0848,-0.0856,-0.0861,-0.0865,-0.0878,-0.0888,-0.0884,-0.0926,-0.0975,-0.0916,-0.0886,-0.0815,-0.0789,-0.0745,-0.0724,-0.0838,-0.0779,-0.0787,-0.0835,-0.082,-0.0809,-0.0819,-0.0758,-0.076,-0.0761,-0.0761,0,-0.0774,-0.076,-0.0765,-0.0761,-0.0769,-0.0755,-0.0788,-0.0764,-0.0785,-0.0822,-0.0792,-0.0772,-0.0791,-0.0723,-0.0689,-0.0649,-0.065,-0.0655,-0.067,-0.0683,-0.0677,-0.0645,-0.0497,0,0,0,0,0,-0.0705,-0.0665,-0.0652,-0.0644,-0.0654,-0.0667,-0.07,-0.0732,-0.0787,-0.0716,-0.076,-0.0693,-0.0634,-0.0633,-0.0566,-0.0628,-0.0648,-0.0549,-0.0662,-0.0692,-0.0706,-0.0709,0,0,0,0,0,0,-0.065,-0.0623,-0.0617,-0.0549,-0.0521,-0.053,-0.0554,-0.0593,-0.0573,-0.0628,-0.0596,-0.0644,-0.0591,-0.0643,-0.0545,-0.0543,-0.06,-0.0552,-0.055,-0.0685,-0.0697,-0.0708,-0.0716,0,0,0,0,0]},{"header":{"parameterUnit":"m.s-1","parameterCategory":2,"la1":30.2991,"la2":30.254,"lo1":-89.0895,"lo2":-89.0444,"dy":0.0017,"dx":0.0017,"nx":28,"ny":28,"refTime":"2023-11-20T09:00:00:Z","depth":"4","parameterNumber":3,"parameterNumberName":"V-component_of_CURRENTS"},"data":[0,0,0,0,0,0,0,0,0,0,0,0,0,0,0,0,0,0,0,0,0,0,0,0,0,0,0,0,0,0,0,0,0,0,0,0,0,0,0,0,0,0,0,0,0,0,0,0,0,0,0,0,0,0,0,0,0,0,-0.0205,-0.0205,0,-0.0173,-0.0173,-0.0173,-0.0161,-0.0161,-0.0162,-0.0162,-0.0206,-0.0207,-0.0208,0,0,0,0,0,0,0,0,0,0,0,0,0,-0.0235,-0.0235,-0.0205,-0.0205,-0.0204,-0.0173,-0.0173,-0.0172,-0.0161,-0.0161,-0.0162,-0.0162,-0.0206,-0.0207,-0.0208,0,0,0,0,0,0,0,0,0,0,0,0,0,-0.0214,-0.0235,-0.0205,-0.0195,-0.0194,-0.0173,-0.0173,-0.0172,-0.0161,-0.0161,-0.0162,-0.0162,-0.0205,-0.0207,-0.0208,-0.0214,0,0,-0.0213,-0.0214,0,0,0,0,0,0,0,0,-0.0216,-0.0213,-0.0197,-0.0196,-0.0194,-0.0172,-0.02,-0.019,-0.0161,-0.0173,-0.0162,-0.0162,-0.0202,-0.0203,-0.0196,-0.0216,-0.0218,-0.0213,-0.0214,-0.0215,-0.0215,0,0,0,0,0,0,0,-0.0217,-0.0215,-0.0192,-0.0196,-0.0195,-0.0185,-0.0183,-0.0197,-0.0188,-0.0172,-0.0172,-0.0168,-0.0201,-0.0194,-0.0197,-0.0218,-0.0213,-0.0215,-0.0215,-0.0216,-0.0244,-0.0244,0,0,0,0,0,0,-0.0222,-0.0216,-0.0193,-0.0191,-0.0206,-0.0185,-0.0182,-0.0179,-0.0186,-0.0187,-0.0168,-0.0168,-0.0191,-0.0195,-0.0198,-0.0185,-0.0215,-0.0216,-0.0217,-0.0244,-0.0244,-0.0244,0,0,0,0,0,0,-0.0223,-0.0221,-0.0194,-0.0203,-0.0199,-0.0184,-0.018,-0.0178,-0.0174,-0.0182,-0.0184,-0.0168,-0.0191,-0.0196,-0.0204,-0.0188,-0.0217,-0.0218,-0.0245,-0.0244,-0.0244,-0.0172,0,0,0,0,0,0,-0.0224,-0.0221,-0.0226,-0.0203,-0.0199,-0.0185,-0.018,-0.0177,-0.0172,-0.0171,-0.0183,-0.0186,-0.0192,-0.0202,-0.0206,-0.019,-0.022,-0.0245,-0.0244,-0.0244,-0.0174,-0.0169,-0.0164,0,0,0,0,0,-0.0225,-0.0228,-0.0226,-0.0224,-0.0204,-0.0185,-0.0182,-0.0172,-0.0172,-0.0169,-0.0171,-0.0186,-0.0203,-0.0203,-0.0208,-0.0192,-0.0245,-0.0245,-0.0244,-0.0177,-0.017,-0.0165,0,0,0,0,0,0,-0.0245,-0.0226,-0.0224,-0.0222,-0.0207,-0.0184,-0.0182,-0.0174,-0.0172,-0.0175,-0.0182,-0.0186,-0.0186,-0.0206,-0.0206,-0.0202,-0.0228,-0.0228,-0.0175,-0.0169,-0.0164,-0.0169,-0.0221,0,0,0,0,0,-0.0252,-0.025,-0.0228,-0.0229,-0.0221,-0.0203,-0.0197,-0.0187,-0.0179,-0.0178,-0.0182,-0.019,-0.0187,-0.0192,-0.02,-0.02,-0.0205,-0.0196,-0.0191,-0.0187,-0.0196,-0.0162,-0.0154,-0.0242,-0.0242,-0.0242,0,0,-0.0261,-0.025,-0.0251,-0.0233,-0.0221,-0.0208,-0.02,-0.0189,-0.0176,-0.0186,-0.0177,-0.0176,-0.0185,-0.0174,-0.0177,-0.0189,-0.0165,-0.0186,-0.0182,-0.0194,-0.0161,-0.0152,-0.0144,-0.0242,-0.0242,-0.0242,0,0,-0.0272,-0.0267,-0.0266,-0.0253,-0.0235,-0.0218,-0.0216,-0.0194,-0.0182,-0.0173,-0.0167,-0.0147,-0.0168,-0.0144,-0.0141,-0.0119,-0.014,-0.0136,-0.0112,-0.0078,-0.007,-0.0063,-0.0056,-0.0049,-0.0132,-0.0132,-0.0132,0,-0.0287,-0.0278,-0.0263,-0.0254,-0.0244,-0.0223,-0.0214,-0.0195,-0.0178,-0.0166,-0.0171,-0.0151,-0.0145,-0.0112,-0.0096,-0.0103,-0.0108,-0.0127,-0.0069,-0.0062,-0.0056,-0.005,-0.0043,-0.0128,-0.0129,-0.0129,-0.013,0,-0.0287,-0.0283,-0.028,-0.0261,-0.0248,-0.0237,-0.0207,-0.0194,-0.018,-0.0159,-0.0132,-0.0109,-0.0099,-0.0082,-0.0081,-0.0036,-0.0061,-0.0061,-0.0076,-0.0042,-0.0039,-0.0033,-0.0123,-0.0125,-0.0126,-0.0127,0,0,-0.0311,-0.0286,-0.0287,-0.0279,-0.025,-0.0239,-0.0214,-0.0181,-0.0167,-0.0138,-0.0116,-0.0069,-0.0058,-0.0054,-0.0037,0.0003,0.0062,-0.0015,-0.0015,0.0004,0.011,0.0093,0.0098,0.0069,0.0071,0.0072,0.0097,0,-0.0316,-0.0305,-0.0288,-0.0276,-0.0264,-0.0238,-0.0217,-0.0187,-0.0162,-0.0138,-0.0089,-0.0071,-0.0047,-0.004,0.001,0.0037,0.0079,0.0053,0.0062,0.0062,0.0054,0.0105,0.0076,0.0101,0.0102,0.0103,0.0104,0,-0.0318,-0.0309,-0.0302,-0.0279,-0.0272,-0.0265,-0.0232,-0.0211,-0.0166,-0.0148,-0.011,-0.0088,-0.0026,-0.0015,0.0068,0.0043,0.0079,0.0109,0.0111,0.007,0.0056,0.0056,0.0115,0.0114,0.0113,0.0112,0.0112,0,-0.0335,-0.0317,-0.0314,-0.0306,-0.0278,-0.0273,-0.0259,-0.0219,-0.0209,-0.0162,-0.0157,-0.0086,-0.0063,0.0002,0.0066,0.0063,0.0145,0.015,0.0172,0.017,0.0145,0.0137,0.0218,0.0218,0.0218,0.0218,0.0218,0,-0.0339,-0.0338,-0.0327,-0.0326,-0.0332,-0.0298,-0.0301,-0.0274,-0.0244,-0.0241,-0.0171,-0.0156,-0.0058,-0.0003,0.0058,0.0127,0.0142,0.0181,0.0185,0.0172,0.0168,0.0149,0.0141,0.0219,0.0219,0.0219,0.0218,0,-0.036,-0.0348,-0.0355,-0.0342,-0.0345,-0.0354,-0.0353,-0.0356,-0.031,-0.0308,-0.0298,-0.021,-0.0132,-0.0039,0.0064,0.011,0.0182,0.0204,0.0168,0.0168,0.0183,0.0178,0.023,0.023,0.023,0.023,0.023,0,-0.0367,-0.0372,-0.0391,-0.0416,-0.042,-0.0431,-0.0449,-0.0408,-0.0413,-0.0347,-0.0354,-0.0264,-0.0203,-0.007,0.0038,0.0158,0.0179,0.0206,0.022,0.019,0.0189,0.0184,0.0179,0.023,0.023,0.023,0.023,0,-0.0393,-0.041,-0.0427,-0.0474,-0.0508,-0.053,-0.0544,-0.0545,-0.0498,-0.047,-0.0404,-0.0309,-0.0214,-0.0086,0.0012,0.01,0.0184,0.0205,0.0206,0.022,0.019,0.0188,0.0183,0.0229,0.0229,0.0229,0.0229,0,-0.0431,-0.0461,-0.0491,-0.0528,-0.0574,-0.0594,-0.0597,-0.0587,-0.0568,-0.049,-0.0478,-0.0343,-0.0268,-0.0117,-0.003,0.0061,0.0088,0.0107,0.0114,0.0116,0.0083,0.0028,0.0028,0,0,0,0,0,-0.0466,-0.0496,-0.0539,-0.0573,-0.0615,-0.0626,-0.0643,-0.0635,-0.0598,-0.0571,-0.0514,-0.0425,-0.0256,-0.017,-0.0083,-0.0028,0.0103,0.0076,0.0128,0.0226,0.0227,0.0208,0,0,0,0,0,0,-0.0491,-0.054,-0.0545,-0.0588,-0.0615,-0.0648,-0.0653,-0.0635,-0.0604,-0.0562,-0.0471,-0.0421,-0.0255,-0.0311,-0.0086,-0.0054,-0.0014,0.0158,0.016,0.0226,0.0226,0.0227,0.0207,0,0,0,0,0]}]]